Weather History for Decatur, IL

Change the Weather History Date:

Friday, November 23, 2012

  Actual Average Record
Temperature  
Mean Temperature 37 °F 39 °F  
Max Temperature 49 °F 48 °F 64 °F (2003)
Min Temperature 25 °F 31 °F 16 °F (2013)
Degree Days  
Heating Degree Days 28 26  
Month to date heating degree days 489 472  
Since 1 July heating degree days 950 890  
Cooling Degree Days 0 0  
Month to date cooling degree days 0 0  
Year to date cooling degree days 1427 1048  
Moisture  
Dew Point 23 °F    
Average Humidity 65    
Maximum Humidity 85    
Minimum Humidity 44    
Precipitation  
Precipitation 0.00 in 0.12 in 0.79 in (2003)
Month to date precipitation 1.15 2.61  
Year to date precipitation 23.85 35.09  
Sea Level Pressure  
Sea Level Pressure 30.20 in    
Wind  
Wind Speed 18 mph (WNW)    
Max Wind Speed 31 mph    
Max Gust Speed 40 mph    
Visibility 8 miles    
Events      
T = Trace of Precipitation, MM = Missing Value Source: NWS Daily Summary

Daily Weather History Graph

Daily Weather History Graph

Search for Another Location

Airport:

Trip Planner

Search our weather history database for the weather conditions in past years. The results will help you decide how hot, cold, wet, or windy it might be!

Date:

Astronomy

Nov. 23, 2012 Rise Set
Actual Time 6:49 AM CST 4:34 PM CST
Civil Twilight 6:20 AM CST 5:03 PM CST
Nautical Twilight 5:47 AM CST 5:36 PM CST
Astronomical Twilight 5:14 AM CST 6:08 PM CST
Moon 1:48 PM CST (11/23) 2:08 AM CST (11/23)
Length of Visible Light 10h 43m
Length of Day
9h 44m
Waxing Gibbous, 80% of the Moon is Illuminated
Nov 23
Waxing Gibbous
Nov 28
Full
Dec 6
Last Quarter
Dec 13
New
Dec 19
First Quarter

Hourly Weather History & Observations

Time (CST) Temp. Windchill Dew Point Humidity Pressure Visibility Wind Dir Wind Speed Gust Speed Precip Events Conditions
12:54 AM 46.0 °F 39.6 °F 37.9 °F 73% 30.05 in 7.0 mi WNW 15.0 mph 27.6 mph N/A   Clear
1:54 AM 43.0 °F 34.8 °F 37.0 °F 80% 30.08 in 9.0 mi NW 18.4 mph 27.6 mph N/A   Clear
2:54 AM 41.0 °F 33.5 °F 35.1 °F 79% 30.09 in 4.0 mi WNW 13.8 mph 23.0 mph N/A   Haze
3:54 AM 39.9 °F 31.4 °F 35.1 °F 83% 30.09 in 5.0 mi West 16.1 mph 24.2 mph N/A   Haze
4:54 AM 39.9 °F 31.8 °F 34.0 °F 79% 30.09 in 5.0 mi West 15.0 mph 20.7 mph N/A   Haze
5:54 AM 39.0 °F 30.3 °F 30.0 °F 70% 30.11 in 7.0 mi WNW 16.1 mph 25.3 mph N/A   Clear
6:54 AM 37.9 °F 28.2 °F 23.0 °F 55% 30.13 in 8.0 mi NW 18.4 mph 33.4 mph N/A   Overcast
7:54 AM 37.9 °F 29.6 °F 25.0 °F 60% 30.15 in 10.0 mi West 13.8 mph 21.9 mph N/A   Overcast
8:54 AM 37.9 °F 25.7 °F 21.9 °F 53% 30.17 in 5.0 mi WNW 29.9 mph 38.0 mph N/A   Partly Cloudy
9:54 AM 37.9 °F 27.1 °F 23.0 °F 55% 30.18 in 10.0 mi WNW 23.0 mph 32.2 mph N/A   Clear
10:54 AM 37.9 °F 26.3 °F 21.9 °F 53% 30.20 in 5.0 mi NW 26.5 mph 33.4 mph N/A   Partly Cloudy
11:54 AM 39.0 °F 28.3 °F 21.0 °F 49% 30.20 in 4.0 mi WNW 24.2 mph 35.7 mph N/A   Clear
12:54 PM 39.0 °F 29.3 °F 19.9 °F 46% 30.21 in 6.0 mi WNW 19.6 mph 28.8 mph N/A   Scattered Clouds
1:54 PM 37.9 °F 27.3 °F 19.9 °F 48% 30.22 in 10.0 mi WNW 21.9 mph 31.1 mph N/A   Clear
2:54 PM 37.0 °F 25.1 °F 19.0 °F 48% 30.23 in 10.0 mi WNW 26.5 mph 35.7 mph N/A   Clear
3:54 PM 35.1 °F 23.0 °F 18.0 °F 50% 30.25 in 10.0 mi WNW 24.2 mph 31.1 mph N/A   Clear
4:54 PM 32.0 °F 22.1 °F 17.1 °F 54% 30.27 in 10.0 mi WNW 13.8 mph 25.3 mph N/A   Clear
5:54 PM 30.9 °F 19.4 °F 17.1 °F 57% 30.29 in 8.0 mi NW 17.3 mph 26.5 mph N/A   Clear
6:54 PM 30.0 °F 19.5 °F 17.1 °F 59% 30.31 in 8.0 mi NW 13.8 mph 24.2 mph N/A   Clear
7:54 PM 28.0 °F 18.1 °F 17.1 °F 63% 30.32 in 10.0 mi NW 11.5 mph 20.7 mph N/A   Clear
8:54 PM 27.0 °F 16.1 °F 16.0 °F 63% 30.31 in 9.0 mi NW 12.7 mph - N/A   Clear
9:54 PM 27.0 °F 15.6 °F 17.1 °F 66% 30.31 in 7.0 mi WNW 13.8 mph 19.6 mph N/A   Clear
10:54 PM 26.1 °F 16.2 °F 17.1 °F 69% 30.31 in 6.0 mi WNW 10.4 mph - N/A   Haze
11:54 PM 25.0 °F 14.8 °F 17.1 °F 72% 30.30 in 7.0 mi WNW 10.4 mph - N/A   Clear